Location: Deerlick Astronomy Village
(33.5614°N, 82.7631°W)
Time: 01:19:51
(UTC-04:00)

Iridium 66 - Visible Passes

Search period start: 19 April 2014 00:00
Search period end: 29 April 2014 00:00
Orbit: 776 x 779 km, 86.4° (Epoch: 17 April)

Date Brightness Start Highest point End Pass type
(mag) Time Alt. Az. Time Alt. Az. Time Alt. Az.
19 Apr 6.5 21:59:52 10° NNE 22:04:15 43° ENE 22:04:15 43° ENE visible
19 Apr 8.4 23:41:58 10° NW 23:44:45 16° WNW 23:44:45 16° WNW visible
20 Apr 7.2 21:27:04 10° NNE 21:31:11 23° E 21:31:14 23° E visible
20 Apr 7.5 23:07:18 10° NNW 23:11:44 31° W 23:11:44 31° W visible
21 Apr 7.9 20:55:33 10° NE 20:57:22 12° ENE 20:58:14 11° E visible
21 Apr 6.3 22:33:20 10° N 22:38:29 62° W 22:38:44 61° WSW visible
22 Apr 5.9 21:59:48 10° N 22:04:59 68° E 22:05:45 59° SE visible
22 Apr 8.8 23:44:07 10° WNW 23:44:59 10° WNW 23:45:52 10° W visible
23 Apr 6.7 21:26:40 10° NNE 21:31:23 34° E 21:32:48 29° ESE visible
23 Apr 8.1 23:07:58 10° NW 23:11:48 21° W 23:13:19 19° WSW visible
24 Apr 7.5 20:54:10 10° NE 20:57:39 18° E 20:59:53 14° ESE visible
24 Apr 7.1 22:33:39 10° NNW 22:38:30 41° W 22:40:23 30° SW visible
25 Apr 6.0 21:59:51 10° N 22:05:04 81° W 22:07:29 33° S visible
26 Apr 6.2 21:26:28 10° N 21:31:32 51° E 21:34:38 23° SSE visible
26 Apr 8.7 23:09:04 10° NW 23:11:42 14° W 23:14:20 10° WSW visible
27 Apr 7.0 20:53:31 10° NNE 20:57:53 27° E 21:01:48 12° SE visible
27 Apr 7.9 22:34:08 10° NNW 22:38:28 27° W 22:42:19 12° SW visible
28 Apr 6.7 22:00:03 10° NNW 22:05:07 53° W 22:09:31 14° SSW visible
